STARLINK-2401, 47818

Orbit data source: Space-Track

STARLINK-2401, 47818 is a payload satellite owned by SpaceX/Seattle (US) in LEO that was launched on Thu, 11 Mar 2021 UTC via an FALCON 9 launch vehicle from the Air Force Eastern Test Range (AFETR). Payload-class satellites include a variety of spacecraft equipped with specific instruments for various scientific and technological missions. These include communications satellites like Starlink; space stations such as the ISS; scientific satellites like the Hubble; Earth observation satellites from companies like Planet Labs, Umbra, and HawkEye 360; GPS; miniature CubeSats for education and research; and military/defense satellites.

Loading next visibility...
Identifier
47818, 2021-018AH
Orbit
LEO
Country
Flag of USUS
Related business
Manufacturer
SpaceX/Seattle
Mission
Operational Commercial Communications
Bus & Motor
STARLINK, Unknown motor
Mass
260 kg wet, ~248 kg dry
Launch date (UTC)
2021-03-11 (5 years ago)
Launch vehicle
FALCON 9
Launch site
Air Force Eastern Test Range (AFETR)
Object type
Payload
Rocket body
Debris
Shape & HBR
Box + 1 Pan, 10.1 m
Radar Cross Section
13.562 m², Large (>1 m²)

Expand to show TLE details & history
Last TLE update: 1 day ago

TLE from 1 day ago
0 STARLINK-2401
1 47818U 21018AH  25292.09951053  .00001241  00000-0  10216-3 0  9993
2 47818  53.0533 172.7090 0001394  82.3850 277.7297 15.06399183255174
Epoch: 2025-10-19T02:23Z
TLE epoch observation values (Epoch: 2025-10-19T02:23:17.709Z)
Latitude
-0.00006°
Longitude
109.06413°
Altitude
547.963 km
Speed
7.589 km/s
True Right ascension
11h 30m 50s
True Declination
0° 00' 00"
Sunlit
Object was in daylight at epoch
Visualization orbit readout
Latitude
Unknown
Longitude
Unknown
Altitude
Unknown
Speed
Unknown
Apparent Right ascension
Unknown
Apparent Declination
Unknown
Sunlit
N/A
Visualization observer readout
Local Sidereal Time
22:06:24
Azimuth
Unknown
Elevation
Unknown
Doppler factor
Unknown
Orbital elements
Apogee altitude
548.45 km
Perigee altitude
546.52 km
Semi-major axis
6,925.622 km
Eccentricity
0.00014
Inclination
53.0533°
RAAN
172.709°
Arg. of periapsis
82.385°
True anomaly
277.71387°
Mean anomaly
277.7297°
Eccentric anomaly
277.72179°
Mean motion
3.76578 °/min
Orbital period
95.6 mins
BSTAR
0.00010216
Loading maneuver chart data...
Computing Atmospheric mass density...

Documentation

Showing up to 5 results
|